Find COSMIC 1-4

NORAD ID: 29051 Int'l Des: 2006-011 Owner: NSPO Country: TW operational
LEOCIRCULAR

現在のビュー

3D地球を読み込み中...

COSMIC 1-4について

説明を読み込み中...

次回通過

Passes for default location (London). Set your location on the main map for personalized predictions.

高度履歴

Loading altitude history...

軌道要素

1 29051U 06011E 26145.95509854 .00000395 00000-0 16027-3 0 9994
2 29051 72.0043 346.9746 0064891 130.0987 230.5864 14.31514510 52088
Epoch: May 25, 2026 • Age: 17 hours

現在のステータス

高度 848.3 km
速度 7.40 km/s
衛星直下点 -41.69°S, 147.66°W
打ち上げ日 Apr 15, 2006
運用期間 20.1 years
タイプ other

技術仕様

分類 Payload
質量 62.00 kg
乾燥質量 56.00 kg
総質量 62.00 kg
長さ 0.20 m
直径 1.00 m
スパン 4.30 m
形状 Cyl + 2 Pan
製造者 OSCD
バスタイプ Microstar
フェーズステータス In Orbit
所有者/国 NSPO/TW

Most Searched